Presure
114 116 121 112 136 119 112 102 87 139 129 152 132 157 132 154 136 138 130 134 126 132 132 132 134 132 92 134 138 119 105 121 118 117 116 127 132 131 140 110 132 138 144
135 131 118 141 91 134 150 119 122 91 125 143 152 139 147 127 144 120 137 119 137 135 141 140 127 135 128 126 127 124 119 116 142 138 129 132 148 100 121 132 136 133 130
137 136 137 125 134 127 95 96 125 127 100 139 120 142 140 158 161 144 146 131 124 130 129 133 138 117 131 129 119 129 145 120 87 130 133 125 132 143 124 113 129 132 140
149 140 109 145 123 126 122 124 133 125 128 112 95 157 123 139 146 127 150 121 141 140 141 130 120 123 125 131 127 136 140 133 132 118 125 127 131 126 135 139 140 108 121
152 151 137 128 134 120 134 135 130 128 126 125 107 112 125 132 134 126 147 141 138 149 140 151 130 132 134 130 127 125 126 123 140 133 146 125 124 123 133 132 128 126 137
138 124 153 133 132 126 97 126 118 135 126 127 123 124 125 96 121 129 140 124 133 120 152 134 156 153 135 132 134 133 136 148 119 134 136 126 130 123 134 131 127 128 131
142 140 131 145 150 136 140 136 124 121 132 117 122 131 128 133 124 120 121 113 110 152 159 146 121 151 144 154 132 129 115 130 151 134 132 143 144 136 134 130 132 131 131
127 126 149 140 148 145 154 134 137 136 124 123 136 119 130 126 128 119 122 123 122 114 115 129 146 144 147 129 133 141 144 129 129 140 144 123 133 145 136 147 142 153 138
144 132 125 139 156 147 158 142 134 135 142 143 141 134 133 109 119 126 131 133 125 126 125 118 152 154 146 150 153 161 138 139 140 141 130 123 136 130 141 152 133 121 130
145 141 131 125 135 160 141 143 156 148 160 124 158 149 149 104 133 139 114 117 119 129 135 132 125 116 162 140 148 137 150 151 127 126 143 145 147 142 147 130 153 151 147
138 139 134 134 163 133 146 138 138 136 153 135 146 150 138 137 148 146 146 127 113 116 128 119 114 106 108 125 123 121 132 139 134 133 123 125 118 130 161 149 154 171 170
150 156 139 143 149 154 154 134 140 145 140 135 154 152 128 154 146 140 119 131 138 147 142 129 149 128 119 108 130 117 123 149 142 162 121 121 153 126 116 140 153 153 135
170 169 150 127 150 141 134 150 155 121 133 149 133 137 112 155 143 156 152 159 150 148 146 143 143 110 115 118 120 122 143 128 116 122 109 132 136 129 140 128 125 145 153
166 163 141 124 128 134 168 158 130 131 180 145 143 141 133 137 139 139 128 126 152 144 150 143 137 137 128 133 149 132 112 119 126 142 145 134 142 138 146 145 143 148 156
168 165 168 158 156 152 168 160 142 137 153 148 152 161 127 143 108 128 131 122 130 128 134 145 141 144 127 152 110 105 134 146 163 163 133 128 145 157 149 138 145 143 136
170 169 172 173 172 170 134 168 160 127 165 164 142 142 135 134 126 121 131 137 159 141 147 145 160 145 148 152 164 142 164 155 153 145 162 169 150 133 142 124 122 158 152
170 172 171 168 164 163 161 163 171 167 160 163 126 154 159 135 127 133 130 143 156 143 137 144 146 186 143 144 143 155 156 147 133 143 119 150 138 145 154 124 143 124 137
181 175 170 168 168 164 161 161 167 173 176 179 183 181 189 167 144 166 158 163 151 157 161 137 126 160 151 150 143 159 150 155 162 156 154 134 130 154 148 154 143 127 147
202 189 170 168 166 164 160 158 166 166 166 167 172 173 182 184 185 190 190 188 188 179 175 180 185 186 172 195 138 186 168 139 141 144 147 148 140 157 142 150 114 146 126
222 224 199 203 205 212 208 206 196 201 171 202 182 174 171 170 171 173 173 175 174 172 169 170 169 169 177 178 171 171 170 178 166 170 144 139 143 154 137 151 145 150 152
194 192 196 211 212 212 180 181 199 199 200 194 204 197 194 195 195 196 201 207 214 220 220 222 224 222 226 227 228 235 243 206 199 200 200 193 176 175 189 146 183 186 178
191 189 194 188 185 191 196 205 200 203 208 208 206 196 252 210 211 193 217 199 198 193 188 190 197 198 198 203 200 202 207 213 218 221 224 225 227 231 239 212 211 198 199
169 155 191 201 194 183 183 183 193 187 187 190 197 201 201 207 209 220 237 208 223 250 193 200 221 207 205 203 202 200 202 200 200 199 201 203 206 210 214 218 224 227 235
186 185 183 188 190 191 202 198 178 180 181 185 183 181 190 189 192 192 202 207 215 202 216 218 228 228 247 243 236 216 210 198 192 200 205 209 214 214 206 202 204 206 208
189 183 185 187 184 186 188 189 185 184 198 195 185 182 180 181 179 182 183 187 194 196 194 192 192 191 193 201 214 233 243 235 228 210 198 200 206 203 206 212 214 215 214
187 194 192 193 196 182 187 187 187 192 189 190 197 187 189 182 186 187 180 181 193 186 192 194 183 182 183 188 192 195 211 221 237 241 229 218 204 205 203 207 201 203 207
Wind_Speed
34 35 33 33 35 33 31 28 27 33 32 41 34 50 36 57 41 49 36 43 30 40 39 42 41 41 21 39 48 31 33 39 39 33 33 36 39 40 47 33 40 46 47
42 39 38 39 33 37 37 34 33 30 33 38 44 38 45 34 54 30 54 29 51 48 54 56 37 50 42 36 34 33 42 44 50 50 45 49 58 31 37 44 51 47 41
48 45 45 40 41 40 35 34 38 38 33 37 33 41 42 52 59 55 66 48 37 44 40 49 59 32 45 44 35 41 54 38 23 44 49 41 48 60 42 40 46 49 58
53 52 43 46 43 42 42 43 44 42 41 38 35 52 37 44 53 40 68 36 68 66 67 50 35 39 41 50 45 56 54 51 52 41 43 50 50 45 57 53 58 35 43
53 56 55 49 50 46 48 48 48 47 45 44 41 40 42 45 46 42 57 58 56 80 60 78 53 56 61 51 49 42 44 43 60 55 66 47 46 48 56 53 46 49 62
61 44 58 56 55 50 52 50 50 51 49 49 47 48 47 41 44 46 52 46 49 43 77 54 74 79 73 62 67 62 66 76 42 57 61 47 56 50 59 58 50 51 54
59 60 56 60 61 60 60 59 53 53 55 52 51 53 52 53 50 47 47 44 43 69 76 62 48 80 75 84 56 55 46 52 86 63 57 74 78 67 63 56 59 56 57
58 53 62 59 58 64 63 61 64 63 57 56 61 54 57 55 55 53 53 53 52 49 49 57 67 69 76 57 62 73 82 50 58 69 76 52 60 82 64 83 76 86 70
72 65 59 69 63 68 62 69 65 63 69 69 68 66 64 55 55 58 60 61 58 59 59 54 71 70 72 77 84 77 74 72 78 80 64 54 68 55 70 83 60 54 58
77 73 68 63 71 64 72 69 67 71 69 60 71 74 73 61 68 69 59 60 60 64 64 63 63 56 73 71 80 71 86 90 59 59 84 89 91 82 87 57 92 89 82
75 75 74 73 77 73 72 68 76 72 72 74 75 77 75 72 76 76 76 69 63 63 67 65 63 58 59 66 63 62 71 76 71 70 59 61 55 60 83 84 83 71 70
85 83 78 75 76 85 81 76 71 75 79 75 78 77 70 78 77 79 72 75 76 80 77 72 78 74 68 62 75 65 67 82 79 84 62 64 87 62 56 75 85 80 62
86 87 88 75 81 80 83 86 84 71 76 87 77 83 67 80 83 81 83 84 85 85 85 84 83 69 71 73 74 74 81 77 68 72 62 77 77 69 76 67 64 83 82
89 89 89 75 81 86 94 94 83 84 84 95 91 90 86 85 85 85 73 73 88 86 86 87 82 85 79 79 87 80 73 78 81 87 88 80 84 83 84 84 81 82 81
90 93 96 95 95 93 96 95 89 92 93 89 94 99 84 94 76 87 84 75 82 81 84 92 90 88 82 97 79 77 89 92 91 93 85 80 89 91 86 83 81 81 79
91 93 95 97 99 100 91 98 95 85 104 100 98 99 96 93 89 83 89 93 100 98 92 92 94 99 100 99 102 95 98 99 97 96 97 97 94 84 86 75 74 90 87
91 95 98 98 99 99 97 100 108 111 103 103 89 97 104 99 90 96 98 103 100 109 100 98 101 106 106 102 102 106 108 105 89 97 86 99 92 95 98 81 92 78 79
91 95 97 99 102 104 104 104 106 107 109 111 110 114 111 109 113 118 114 115 112 107 110 102 91 108 110 110 111 110 114 111 113 110 107 92 90 106 100 101 92 84 95
81 87 95 97 100 102 103 104 107 109 110 111 113 115 113 113 115 113 113 114 112 117 119 118 116 117 117 117 104 117 120 104 108 107 108 105 101 116 99 104 84 99 87
62 62 82 82 85 86 90 93 98 96 112 100 110 115 117 117 118 118 117 117 117 118 118 117 116 118 120 119 119 119 117 118 126 121 113 101 111 114 94 111 103 107 107
67 70 71 68 72 78 94 96 90 92 94 97 94 99 101 102 103 104 103 100 97 94 95 96 97 99 97 97 98 94 90 111 118 118 118 120 121 119 117 114 117 116 117
70 73 74 77 78 78 79 75 81 81 78 82 89 93 72 93 94 102 97 105 107 108 111 109 106 106 105 103 106 107 105 102 100 100 98 99 100 99 94 109 107 113 112
74 79 74 70 77 84 85 86 83 86 87 86 83 82 83 79 81 81 77 94 91 83 104 103 98 106 108 107 107 108 108 110 110 110 108 107 106 104 102 99 95 94 90
76 81 81 81 81 82 76 82 92 93 94 93 94 95 92 93 90 92 86 85 81 93 84 83 83 89 87 92 97 107 109 111 112 113 113 108 105 104 108 109 107 105 101
81 79 81 87 88 89 89 90 95 96 89 94 99 101 101 101 100 100 100 99 96 92 93 97 99 102 102 98 92 92 95 100 105 111 115 119 114 109 107 104 103 104 103
88 89 90 90 90 96 96 96 97 94 96 97 95 102 104 107 107 107 106 104 100 101 98 99 102 103 105 106 106 105 97 94 95 98 104 110 119 122 116 112 109 106 105
Wind_Direction
248 248 244 250 235 241 248 254 270 230 228 220 233 217 236 220 231 225 238 236 244 238 236 242 243 243 242 250 242 244 255 255 255 251 252 260 266 265 264 262 273 277 268
243 234 240 231 263 237 229 243 240 265 237 229 222 232 228 240 222 249 232 249 239 244 232 241 243 246 244 246 247 248 254 258 248 254 254 261 260 268 260 267 273 277 276
242 240 241 240 237 240 256 253 246 243 256 236 239 228 231 227 228 225 227 242 249 245 249 248 244 246 252 250 245 250 248 250 255 261 260 256 265 263 260 265 271 275 278
234 240 252 236 238 240 245 245 241 244 243 247 256 227 239 233 229 245 226 248 234 236 239 247 250 253 253 253 253 258 257 258 254 251 255 260 265 263 269 263 270 259 265
231 235 245 245 240 241 239 238 242 243 244 244 249 249 245 239 240 247 232 238 242 234 240 240 248 249 248 253 254 255 253 253 261 257 251 255 258 258 268 267 264 267 275
243 253 237 245 246 246 260 244 245 241 245 245 248 249 248 255 248 246 243 248 248 252 238 246 242 244 246 252 254 258 260 256 254 262 263 259 261 260 261 265 262 264 269
238 243 248 241 237 246 245 247 244 245 246 247 246 246 248 246 250 254 252 250 253 239 240 248 257 246 247 248 252 253 252 261 252 264 264 263 264 266 264 262 264 266 266
247 242 239 247 244 241 240 248 248 252 245 246 251 248 248 250 251 251 255 255 254 254 254 250 250 248 246 257 257 255 251 261 257 260 263 258 266 264 265 266 270 269 270
235 249 258 250 241 242 238 244 251 250 251 252 248 250 249 255 249 250 252 251 254 255 257 257 248 250 250 250 252 254 259 260 259 260 260 258 266 264 269 269 266 262 266
236 241 255 255 252 240 250 247 243 245 244 254 244 249 249 258 252 252 251 250 251 253 253 254 258 256 249 252 251 257 254 257 262 260 259 261 263 265 267 263 270 270 273
246 247 252 254 240 254 246 254 255 255 247 254 251 249 253 255 251 253 253 254 254 252 253 254 255 254 255 262 262 261 260 259 262 261 259 261 257 264 265 268 270 265 267
237 245 248 251 257 240 242 257 252 250 255 257 247 247 258 249 251 255 252 254 258 256 256 252 255 254 255 256 260 261 255 253 258 256 259 259 260 263 258 268 266 268 268
258 255 244 261 251 260 258 246 252 261 261 249 257 257 253 250 255 253 252 249 253 255 257 257 257 255 255 256 256 257 254 261 260 264 257 264 263 262 261 264 259 268 267
254 251 249 262 259 258 254 249 260 262 266 255 255 254 260 260 257 258 260 262 252 259 258 259 256 260 254 258 256 257 257 257 257 257 257 260 258 259 259 259 260 261 264
254 256 255 253 255 256 259 253 261 257 260 265 257 253 264 256 253 268 265 260 264 263 261 260 262 257 254 261 257 259 257 258 256 255 258 258 260 257 258 260 260 261 263
256 256 257 257 257 259 257 263 262 261 264 262 252 255 260 259 263 260 261 262 258 260 256 258 260 260 260 260 257 260 255 256 257 260 259 256 261 258 258 257 259 262 261
256 256 257 258 261 262 263 265 262 263 265 265 262 257 260 260 262 263 264 262 260 258 262 255 258 265 260 260 260 259 257 260 258 263 256 260 261 263 261 258 261 259 260
252 253 254 255 256 257 259 261 261 260 260 261 263 264 263 260 254 266 264 266 260 261 263 262 261 259 255 257 257 259 258 258 257 255 259 259 258 259 264 261 261 262 263
258 256 256 257 257 258 259 261 261 261 262 263 263 264 264 264 264 264 264 263 262 263 264 264 265 264 263 263 261 264 261 263 264 263 262 261 264 261 263 262 257 265 264
262 262 262 263 264 263 262 262 262 263 260 264 263 263 263 263 264 264 264 264 264 264 264 264 264 265 265 266 263 264 262 262 258 261 263 265 265 264 262 262 265 264 263
260 259 261 263 262 264 262 263 262 264 266 265 264 262 263 264 265 266 266 265 265 263 263 263 262 262 261 262 263 263 263 263 263 263 262 261 261 260 260 265 262 262 262
265 263 264 260 259 262 263 263 262 262 263 265 265 265 269 264 265 264 262 262 263 264 263 264 265 264 264 265 265 266 266 265 266 265 264 264 264 264 264 261 260 259 260
266 267 264 264 264 262 262 262 264 264 265 266 266 264 265 264 264 264 264 263 263 264 264 264 264 264 263 263 264 264 265 266 266 264 264 264 264 263 263 264 262 261 261
265 262 261 260 261 262 263 262 262 263 263 264 264 264 264 265 263 264 262 261 262 263 261 262 265 265 264 263 263 263 263 264 266 267 266 263 262 262 263 263 263 262 261
268 266 263 262 261 260 260 259 260 262 261 263 264 265 265 265 265 264 264 265 263 261 262 263 264 266 266 265 265 266 265 262 260 262 266 269 265 261 260 260 262 263 262
271 268 266 264 262 262 260 259 259 258 258 259 259 261 261 263 263 263 264 264 261 264 263 264 267 268 269 269 269 268 264 265 265 263 261 260 265 269 265 261 259 260 260